FW5813 Weather Reports


time (UTC)temp
C
wind
direction
speed
KPH
gust
KPH
rain 1hr
cm
rain 24hr
cm
rain mn
cm
humidity
%
barometer
mb
20260508022340 9 273 0.0 4.8 0.00 0.00 0.00 83 1015.5
20260508021340 9 26 1.6 4.8 0.00 0.00 0.00 82 1015.6
20260508020840 9 35 1.6 4.8 0.00 0.00 0.00 82 1015.6
20260508020340 9 41 3.2 4.8 0.00 0.00 0.00 83 1015.3
20260508015840 9 8 3.2 3.2 0.00 0.00 0.00 83 1015.4
20260508015340 9 86 1.6 3.2 0.00 0.00 0.00 83 1015.6
20260508014840 9 29 1.6 3.2 0.00 0.00 0.00 83 1015.4
20260508013840 8 7 0.0 3.2 0.00 0.00 0.00 82 1015.3
20260508013340 8 30 1.6 4.8 0.00 0.00 0.00 82 1015.4
20260508012340 9 11 3.2 6.4 0.00 0.00 0.00 80 1015.3
20260508011840 9 20 0.0 6.4 0.00 0.00 0.00 80 1015.5
20260508011339 10 4 1.6 6.4 0.00 0.00 0.00 79 1015.2
20260508010840 10 41 3.2 4.8 0.00 0.00 0.00 79 1015.3
20260508010340 10 11 3.2 4.8 0.00 0.00 0.00 79 1015.1
20260508005840 10 31 0.0 4.8 0.00 0.00 0.00 79 1015.2
20260508005340 10 356 1.6 4.8 0.00 0.00 0.00 79 1015.1
20260508004840 10 9 3.2 6.4 0.00 0.00 0.00 78 1015.1
20260508004340 10 22 3.2 6.4 0.00 0.00 0.00 78 1015.1
20260508003839 10 359 4.8 6.4 0.00 0.00 0.00 77 1015.2
20260508003339 11 354 4.8 6.4 0.00 0.00 0.00 77 1015.1
20260508002340 11 14 3.2 8.0 0.00 0.00 0.00 76 1015.3
20260508001840 11 20 3.2 8.0 0.00 0.00 0.00 76 1015.1
20260508001340 11 6 3.2 8.0 0.00 0.00 0.00 76 1015.2
20260508000342 11 301 4.8 4.8 0.00 0.00 0.00 75 1015.2
20260507235840 11 44 0.0 4.8 0.00 0.00 0.00 75 1015.3
20260507234339 12 30 3.2 4.8 0.00 0.00 0.00 73 1015.3
20260507233840 12 312 0.0 4.8 0.00 0.00 0.00 73 1015.3
20260507233340 12 290 0.0 4.8 0.00 0.00 0.00 72 1015.4
20260507232853 12 22 0.0 4.8 0.00 0.00 0.00 72 1015.3
20260507232340 12 179 0.0 4.8 0.00 0.00 0.00 71 1015.2
20260507231840 12 13 3.2 4.8 0.00 0.00 0.00 71 1015.2
20260507231340 12 131 0.0 4.8 0.00 0.00 0.00 71 1015.5
20260507230839 13 237 0.0 4.8 0.00 0.00 0.00 71 1015.5
20260507230339 13 16 1.6 4.8 0.00 0.00 0.00 71 1015.4
20260507225840 13 0 1.6 4.8 0.00 0.00 0.00 71 1015.2
20260507225340 13 309 0.0 6.4 0.00 0.00 0.00 71 1015.2
20260507224339 13 30 3.2 6.4 0.00 0.00 0.00 71 1015.2
20260507223840 13 20 3.2 6.4 0.00 0.00 0.00 70 1015.0
20260507223339 13 345 1.6 4.8 0.00 0.00 0.00 70 1015.2
20260507222840 13 13 0.0 4.8 0.00 0.00 0.00 70 1015.0
20260507222340 13 42 3.2 6.4 0.00 0.00 0.00 70 1015.0
20260507221840 13 28 1.6 8.0 0.00 0.00 0.00 69 1014.9
20260507221339 13 7 6.4 6.4 0.00 0.00 0.00 69 1015.0
20260507220840 13 16 0.0 3.2 0.00 0.00 0.00 69 1014.8
20260507220340 13 22 3.2 6.4 0.00 0.00 0.00 68 1014.8
20260507215839 13 341 3.2 6.4 0.00 0.00 0.00 68 1014.8
20260507215340 14 217 0.0 6.4 0.00 0.00 0.00 67 1014.9
20260507214840 14 229 0.0 9.7 0.00 0.00 0.00 66 1014.6
20260507214340 14 320 3.2 9.7 0.00 0.00 0.00 66 1014.7
20260507213840 14 288 0.0 6.4 0.00 0.00 0.00 66 1014.6
20260507213340 14 330 4.8 6.4 0.00 0.00 0.00 66 1014.4
20260507212840 14 26 0.0 4.8 0.00 0.00 0.00 66 1014.6
20260507212340 14 258 4.8 4.8 0.00 0.00 0.00 65 1014.5
20260507211340 14 258 1.6 4.8 0.00 0.00 0.00 65 1014.6
20260507210353 15 44 0.0 3.2 0.00 0.00 0.00 64 1014.3
20260507205840 15 104 1.6 4.8 0.00 0.00 0.00 64 1014.4
20260507205342 15 250 0.0 4.8 0.00 0.00 0.00 64 1014.4
20260507204839 15 61 1.6 4.8 0.00 0.00 0.00 64 1014.3
20260507204339 15 315 0.0 4.8 0.00 0.00 0.00 64 1014.3
20260507203840 15 225 0.0 3.2 0.00 0.00 0.00 63 1014.1
20260507203339 15 40 0.0 3.2 0.00 0.00 0.00 63 1013.8
20260507202840 15 15 1.6 4.8 0.00 0.00 0.00 62 1014.0
20260507202339 15 18 1.6 9.7 0.00 0.00 0.00 61 1014.0
20260507201839 15 309 0.0 9.7 0.00 0.00 0.00 61 1013.7
20260507201340 15 334 6.4 8.0 0.00 0.00 0.00 61 1014.0
20260507200840 15 227 1.6 4.8 0.00 0.00 0.00 60 1013.9
20260507200345 15 241 3.2 4.8 0.00 0.00 0.00 60 1013.5
20260507195840 16 143 0.0 6.4 0.00 0.00 0.00 60 1013.5
20260507195340 16 226 0.0 6.4 0.00 0.00 0.00 59 1013.9
20260507194840 16 342 1.6 17.7 0.00 0.00 0.00 59 1013.4
20260507194339 16 287 6.4 17.7 0.00 0.00 0.00 60 1013.4
20260507193840 16 217 4.8 11.3 0.00 0.00 0.00 62 1013.3
20260507193355 15 221 6.4 9.7 0.00 0.00 0.00 63 1013.3
20260507192840 16 240 1.6 6.4 0.00 0.00 0.00 63 1013.4
20260507192339 16 235 4.8 6.4 0.00 0.00 0.00 62 1013.2
20260507191839 16 226 1.6 4.8 0.00 0.00 0.00 62 1013.1
20260507191340 15 89 0.0 3.2 0.00 0.00 0.00 64 1012.9
20260507190839 15 282 0.0 6.4 0.00 0.00 0.00 68 1012.9
20260507190340 15 245 0.0 8.0 0.00 0.00 0.00 74 1012.9
20260507185839 15 242 3.2 8.0 0.00 0.00 0.00 74 1012.7
20260507185339 15 218 3.2 4.8 0.00 0.00 0.00 74 1012.8
20260507184840 15 242 3.2 6.4 0.00 0.00 0.00 74 1012.8
20260507184339 15 217 0.0 8.0 0.00 0.00 0.00 74 1012.8
20260507183841 15 172 4.8 8.0 0.00 0.00 0.00 74 1012.7
20260507182840 15 224 4.8 8.0 0.00 0.00 0.00 72 1012.6
20260507181839 15 213 3.2 6.4 0.00 0.00 0.00 71 1012.5
20260507181340 16 174 1.6 6.4 0.00 0.00 0.00 70 1012.4
20260507180840 16 204 3.2 6.4 0.00 0.00 0.00 70 1012.4
20260507180340 16 101 3.2 4.8 0.00 0.00 0.00 69 1012.2
20260507175840 16 192 3.2 6.4 0.00 0.00 0.00 69 1012.3
20260507175339 16 195 4.8 8.0 0.00 0.00 0.00 67 1012.1
20260507174840 16 194 3.2 8.0 0.00 0.00 0.00 67 1012.3
20260507174340 16 198 3.2 8.0 0.00 0.00 0.00 66 1011.9
20260507173839 16 216 4.8 6.4 0.00 0.00 0.00 65 1012.2
20260507173339 16 213 3.2 6.4 0.00 0.00 0.00 65 1012.1
20260507172340 16 220 3.2 9.7 0.00 0.00 0.00 65 1012.0
20260507171840 16 126 1.6 11.3 0.00 0.00 0.00 64 1011.7
20260507170339 17 234 8.0 16.1 0.00 0.00 0.00 60 1011.6
20260507165840 17 140 3.2 16.1 0.00 0.00 0.00 57 1011.5
20260507165340 17 208 3.2 9.7 0.00 0.00 0.00 58 1011.5
20260507164840 17 202 4.8 8.0 0.00 0.00 0.00 59 1011.8
20260507164340 17 229 3.2 11.3 0.00 0.00 0.00 58 1011.6
20260507163339 17 175 3.2 24.1 0.00 0.00 0.00 56 1011.4
20260507162839 17 201 3.2 17.7 0.00 0.00 0.00 55 1011.5
20260507162340 18 217 6.4 17.7 0.00 0.00 0.00 54 1011.5
20260507161839 18 184 3.2 16.1 0.00 0.00 0.00 53 1011.3
20260507161340 18 196 6.4 16.1 0.00 0.00 0.00 52 1011.3
20260507160839 18 199 14.5 16.1 0.00 0.00 0.00 51 1011.3
20260507160339 18 197 8.0 14.5 0.00 0.00 0.00 49 1011.1
20260507155840 19 185 3.2 14.5 0.00 0.00 0.00 47 1011.2
20260507154840 20 83 0.0 4.8 0.00 0.00 0.00 44 1011.0
20260507154340 21 146 0.0 3.2 0.00 0.00 0.00 41 1011.1
20260507153840 21 208 0.0 3.2 0.00 0.00 0.00 40 1011.1
20260507153340 21 315 0.0 6.4 0.00 0.00 0.00 41 1011.0
20260507152839 21 340 0.0 6.4 0.00 0.00 0.00 40 1011.2
20260507151840 21 236 0.0 8.0 0.00 0.00 0.00 40 1011.0
20260507151340 21 306 3.2 8.0 0.00 0.00 0.00 39 1010.9
20260507150840 22 27 3.2 4.8 0.00 0.00 0.00 38 1010.9
20260507150339 22 199 3.2 6.4 0.00 0.00 0.00 38 1010.9
20260507145840 22 220 4.8 6.4 0.00 0.00 0.00 37 1010.9
20260507144340 23 315 0.0 11.3 0.00 0.00 0.00 37 1010.8
20260507143840 23 355 3.2 11.3 0.00 0.00 0.00 38 1011.0
20260507142840 23 256 0.0 6.4 0.00 0.00 0.00 36 1010.9
20260507142340 22 353 3.2 6.4 0.00 0.00 0.00 38 1010.9
20260507141840 22 306 1.6 8.0 0.00 0.00 0.00 38 1011.0
20260507141340 21 36 1.6 17.7 0.00 0.00 0.00 40 1010.9
20260507140840 21 2 14.5 20.9 0.00 0.00 0.00 41 1011.1
20260507140340 22 352 12.9 20.9 0.00 0.00 0.00 40 1011.0
20260507135340 22 24 4.8 4.8 0.00 0.00 0.00 36 1010.8
20260507134840 22 204 1.6 4.8 0.00 0.00 0.00 37 1011.0
20260507133340 22 226 9.7 9.7 0.00 0.00 0.00 36 1010.9
20260507132340 22 224 0.0 9.7 0.00 0.00 0.00 38 1011.4
20260507131840 22 248 6.4 9.7 0.00 0.00 0.00 39 1011.3
20260507131340 21 207 4.8 9.7 0.00 0.00 0.00 39 1011.1
20260507130340 22 1 0.0 8.0 0.00 0.00 0.00 41 1011.2
20260507125841 22 135 0.0 11.3 0.00 0.00 0.00 40 1011.3
20260507125340 22 244 3.2 11.3 0.00 0.00 0.00 38 1011.4
20260507124340 23 231 3.2 14.5 0.00 0.00 0.00 38 1011.6
20260507123840 22 197 0.0 9.7 0.00 0.00 0.00 41 1011.3
20260507122840 23 216 6.4 12.9 0.00 0.00 0.00 38 1011.5
20260507122340 21 138 0.0 12.9 0.00 0.00 0.00 42 1011.3
20260507121840 21 189 9.7 22.5 0.00 0.00 0.00 41 1011.4
20260507121340 22 222 9.7 22.5 0.00 0.00 0.00 41 1011.5
20260507120840 23 260 3.2 14.5 0.00 0.00 0.00 39 1011.5
20260507120340 23 17 3.2 12.9 0.00 0.00 0.00 38 1011.6
20260507115839 23 294 1.6 14.5 0.00 0.00 0.00 40 1011.5
20260507115340 22 40 3.2 14.5 0.00 0.00 0.00 41 1011.7
20260507114352 22 211 3.2 6.4 0.00 0.00 0.00 39 1011.8
20260507113339 22 257 0.0 11.3 0.00 0.00 0.00 44 1012.1
20260507112339 21 231 0.0 9.7 0.00 0.00 0.00 43 1011.7
20260507111839 21 227 3.2 17.7 0.00 0.00 0.00 43 1012.1
20260507111340 20 239 3.2 17.7 0.00 0.00 0.00 44 1011.7
20260507110841 21 218 3.2 17.7 0.00 0.00 0.00 45 1012.1
20260507105841 22 236 9.7 9.7 0.00 0.00 0.00 41 1012.3
20260507105340 23 256 3.2 9.7 0.00 0.00 0.00 38 1012.0
20260507103840 21 222 3.2 16.1 0.00 0.00 0.00 43 1012.0
20260507103345 22 265 4.8 11.3 0.00 0.00 0.00 42 1012.1
20260507102840 21 237 3.2 11.3 0.00 0.00 0.00 44 1012.3
20260507102340 21 251 4.8 20.9 0.00 0.00 0.00 42 1012.3
20260507101839 21 242 4.8 20.9 0.00 0.00 0.00 43 1012.4
20260507101340 21 115 0.0 14.5 0.00 0.00 0.00 43 1012.3
20260507100839 21 306 4.8 14.5 0.00 0.00 0.00 44 1012.3
20260507100353 21 357 1.6 6.4 0.00 0.00 0.00 46 1012.4
20260507095840 20 217 1.6 6.4 0.00 0.00 0.00 47 1012.4
20260507095340 20 328 1.6 9.7 0.00 0.00 0.00 47 1012.4
20260507094841 20 332 3.2 9.7 0.00 0.00 0.00 49 1012.3
20260507094340 20 350 3.2 9.7 0.00 0.00 0.00 48 1012.1
20260507093840 20 233 3.2 9.7 0.00 0.00 0.00 47 1012.1
20260507092840 20 285 1.6 14.5 0.00 0.00 0.00 50 1012.1
20260507092341 19 221 4.8 8.0 0.00 0.00 0.00 52 1011.9
20260507091840 19 241 6.4 9.7 0.00 0.00 0.00 51 1012.1
20260507090840 18 192 3.2 8.0 0.00 0.00 0.00 51 1012.1
20260507090340 19 8 1.6 8.0 0.00 0.00 0.00 52 1012.0
20260507085840 19 231 4.8 8.0 0.00 0.00 0.00 51 1011.9
20260507085340 19 24 4.8 8.0 0.00 0.00 0.00 51 1012.1
20260507084840 19 209 6.4 8.0 0.00 0.00 0.00 51 1012.1
20260507084340 18 272 1.6 6.4 0.00 0.00 0.00 53 1011.9
20260507083840 18 25 3.2 14.5 0.00 0.00 0.00 56 1011.8
20260507083340 17 240 3.2 14.5 0.00 0.00 0.00 56 1011.8
20260507082840 17 199 6.4 12.9 0.00 0.00 0.00 56 1011.6
20260507082340 18 205 0.0 8.0 0.00 0.00 0.00 56 1011.8
20260507080840 18 233 11.3 14.5 0.00 0.00 0.00 54 1011.8
20260507075340 17 214 6.4 8.0 0.00 0.00 0.00 55 1011.6
20260507074340 17 223 4.8 8.0 0.00 0.00 0.00 55 1011.8
20260507073840 17 269 3.2 9.7 0.00 0.00 0.00 57 1011.4
20260507073340 17 242 3.2 11.3 0.00 0.00 0.00 56 1011.6
20260507072340 17 240 3.2 11.3 0.00 0.00 0.00 58 1011.4
20260507071340 17 259 3.2 9.7 0.00 0.00 0.00 58 1011.2
20260507070840 17 11 3.2 9.7 0.00 0.00 0.00 59 1011.4
20260507070353 17 207 6.4 9.7 0.00 0.00 0.00 57 1011.2
20260507065840 17 225 9.7 9.7 0.00 0.00 0.00 59 1011.3
20260507065340 17 359 1.6 9.7 0.00 0.00 0.00 62 1011.2
20260507064840 17 220 6.4 9.7 0.00 0.00 0.00 62 1011.3
20260507064340 16 225 6.4 14.5 0.00 0.00 0.00 64 1011.4
20260507062839 15 224 8.0 17.7 0.00 0.00 0.00 69 1011.6
20260507062340 15 195 3.2 14.5 0.00 0.00 0.00 70 1011.4
20260507061853 15 349 1.6 14.5 0.00 0.00 0.00 71 1011.1
20260507061340 14 221 3.2 17.7 0.00 0.00 0.00 72 1011.3
20260507060839 14 229 3.2 17.7 0.00 0.00 0.00 73 1011.3
20260507060340 14 233 11.3 17.7 0.00 0.00 0.00 73 1011.3
20260507055840 14 96 1.6 11.3 0.00 0.00 0.00 73 1010.9
20260507055340 14 217 4.8 11.3 0.00 0.00 0.00 72 1011.0
20260507054340 14 255 3.2 12.9 0.00 0.00 0.00 73 1010.6
20260507053841 14 235 8.0 12.9 0.00 0.00 0.00 74 1010.9
20260507053341 13 234 4.8 14.5 0.00 0.00 0.00 74 1010.6
20260507052840 13 278 3.2 14.5 0.00 0.00 0.00 74 1010.6
20260507052340 13 240 8.0 11.3 0.00 0.00 0.00 75 1010.6
20260507051840 13 222 1.6 11.3 0.00 0.00 0.00 76 1010.9
20260507050840 13 254 4.8 16.1 0.00 0.00 0.00 76 1010.6
20260507050339 13 237 8.0 17.7 0.00 0.00 0.00 76 1010.6
20260507045840 13 225 12.9 17.7 0.00 0.00 0.00 76 1010.4
20260507045340 13 232 6.4 14.5 0.00 0.00 0.00 76 1010.5
20260507044840 13 238 11.3 14.5 0.00 0.00 0.00 77 1010.3
20260507044339 13 229 6.4 9.7 0.00 0.00 0.00 77 1010.3
20260507043840 13 215 3.2 11.3 0.00 0.00 0.00 78 1010.3
20260507043340 12 204 3.2 12.9 0.00 0.00 0.00 78 1010.0
20260507042840 12 213 1.6 14.5 0.00 0.00 0.00 79 1009.9
20260507042340 12 211 12.9 14.5 0.00 0.00 0.00 79 1010.1
20260507041840 12 201 3.2 9.7 0.00 0.00 0.00 79 1009.9
20260507040840 12 169 3.2 8.0 0.00 0.00 0.00 79 1009.9
20260507035840 12 264 3.2 9.7 0.00 0.00 0.00 80 1009.7
20260507035340 12 221 6.4 8.0 0.00 0.00 0.00 80 1009.7
20260507034839 12 203 3.2 8.0 0.00 0.00 0.00 80 1009.7
20260507034340 12 210 3.2 8.0 0.00 0.00 0.00 80 1009.6
20260507033340 12 206 4.8 6.4 0.00 0.00 0.00 79 1009.5
20260507032340 13 196 4.8 6.4 0.00 0.00 0.00 79 1009.9
20260507031840 13 202 3.2 9.7 0.00 0.00 0.00 78 1009.5
20260507031340 13 220 6.4 9.7 0.00 0.00 0.00 78 1009.4
20260507030840 13 219 1.6 6.4 0.00 0.00 0.00 78 1009.5
20260507025841 13 227 3.2 11.3 0.00 0.00 0.00 78 1009.2
20260507025340 13 220 3.2 11.3 0.00 0.00 0.00 78 1009.0
20260507024840 13 194 6.4 8.0 0.00 0.00 0.00 78 1009.0
20260507024339 13 197 3.2 8.0 0.00 0.00 0.00 78 1009.2
20260507023840 13 176 1.6 6.4 0.00 0.00 0.00 77 1009.0
20260507022840 13 197 4.8 9.7 0.00 0.00 0.00 77 1009.0